This is the latest recevied weather packets stored in our database for station/object N8TWM-13. If no packets are shown the sender has not sent any weather packets the latest 10 day(s).
| Time | Temp. | Humidity | Pressure | Rain* | Wind** | Luminosity | Snow |
|---|---|---|---|---|---|---|---|
| 1777404080 | 21.11° C | 66% | 1013.1 hPa | 0 mm | - | 431 W/m² | - |
| 1777403775 | 20.56° C | 65% | 1013.1 hPa | 0 mm | - | 565 W/m² | - |
| 1777403474 | 21.11° C | 65% | 1012.9 hPa | 0 mm | - | 685 W/m² | - |
| 1777403168 | 20.56° C | 66% | 1012.8 hPa | 0 mm | - | 693 W/m² | - |
| 1777402864 | 21.11° C | 66% | 1012.9 hPa | 0 mm | - | 772 W/m² | - |
| 1777402561 | 20.56° C | 67% | 1013 hPa | 0 mm | - | 794 W/m² | - |
| 1777402258 | 20° C | 69% | 1013.4 hPa | 0 mm | - | 815 W/m² | - |
| 1777401953 | 20.56° C | 68% | 1013 hPa | 0 mm | - | 223 W/m² | - |
| 1777401651 | 20.56° C | 69% | 1013.1 hPa | 0 mm | - | 810 W/m² | - |
| 1777401349 | 20.56° C | 68% | 1013.2 hPa | 0 mm | - | 759 W/m² | - |
| 1777401044 | 20.56° C | 69% | 1012.8 hPa | 0 mm | - | 754 W/m² | - |
| 1777400740 | 20.56° C | 69% | 1013 hPa | 0 mm | - | 178 W/m² | - |
| 1777400438 | 20.56° C | 69% | 1013 hPa | 0 mm | - | 804 W/m² | - |
| 1777400132 | 20.56° C | 71% | 1012.9 hPa | 0 mm | - | 784 W/m² | - |
| 1777399830 | 20° C | 72% | 1012.8 hPa | 0 mm | - | 517 W/m² | - |
| 1777399527 | 20.56° C | 72% | 1012.9 hPa | 0 mm | - | 171 W/m² | - |
| 1777399224 | 20.56° C | 73% | 1012.9 hPa | 0 mm | - | 783 W/m² | - |
| 1777398921 | 20.56° C | 72% | 1013.1 hPa | 0 mm | - | 822 W/m² | - |
| 1777398618 | 20.56° C | 71% | 1013 hPa | 0 mm | - | 484 W/m² | - |
| 1777398315 | 20.56° C | 73% | 1012.6 hPa | 0 mm | - | 780 W/m² | - |
| 1777398012 | 20° C | 75% | 1013 hPa | 0 mm | - | 207 W/m² | - |
| 1777397708 | 20° C | 75% | 1012.8 hPa | 0 mm | - | 248 W/m² | - |
| 1777397404 | 20° C | 75% | 1012.7 hPa | 0 mm | - | 260 W/m² | - |
| 1777397101 | 21.11° C | 73% | 1012.8 hPa | 0 mm | - | 336 W/m² | - |
| 1777396797 | 20.56° C | 75% | 1012.8 hPa | 0 mm | - | 276 W/m² | - |
* Rain latest hour (hover to see other rain measurements)
** Current wind speed in m/s (hover to see current wind gust speed)